Weather History for Millington, TN

Change the Weather History Date:

Friday, March 2, 2012

  Actual Average Record
Temperature  
Mean Temperature 66 °F -  
Max Temperature 82 °F 55 °F 82 °F (2012)
Min Temperature 48 °F 38 °F 21 °F (2009)
Cooling Degree Days 2    
Growing Degree Days 16 (Base 50)    
Moisture  
Dew Point 56 °F    
Average Humidity 61    
Maximum Humidity 83    
Minimum Humidity 17    
Precipitation  
Precipitation 0.00 in - - ()
Sea Level Pressure  
Sea Level Pressure 29.61 in    
Wind  
Wind Speed 13 mph (SW)    
Max Wind Speed 28 mph    
Max Gust Speed 40 mph    
Visibility 10 miles    
Events      
Averages and records for this station are not official NWS values.
T = Trace of Precipitation, MM = Missing Value Source: NWS Daily Summary

Daily Weather History Graph

Daily Weather History Graph

Search for Another Location

Airport:

Trip Planner

Search our weather history database for the weather conditions in past years. The results will help you decide how hot, cold, wet, or windy it might be!

Date:

Astronomy

Mar. 02, 2012 Rise Set
Actual Time 6:27 AM CST 5:56 PM CST
Civil Twilight 6:01 AM CST 6:21 PM CST
Nautical Twilight 5:32 AM CST 6:51 PM CST
Astronomical Twilight 5:02 AM CST 7:20 PM CST
Moon 12:18 PM CST (3/2) 2:07 AM CST (3/2)
Length of Visible Light 12h 20m
Length of Day
11h 29m
Waxing Gibbous, 66% of the Moon is Illuminated
Mar 2
Waxing Gibbous
Mar 8
Full
Mar 14
Last Quarter
Mar 22
New
Mar 30
First Quarter

Hourly Weather History & Observations

Time (CST) Temp. Windchill Dew Point Humidity Pressure Visibility Wind Dir Wind Speed Gust Speed Precip Events Conditions
12:55 AM 68.0 °F - 60.8 °F 78% 29.67 in 10.0 mi South 6.9 mph - N/A   Partly Cloudy
1:15 AM 68.0 °F - 62.6 °F 83% 29.66 in 10.0 mi South 5.8 mph - N/A   Partly Cloudy
1:35 AM 68.0 °F - 62.6 °F 83% 29.66 in 10.0 mi South 4.6 mph - N/A   Partly Cloudy
1:55 AM 68.0 °F - 62.6 °F 83% 29.66 in 10.0 mi Variable 4.6 mph - N/A   Clear
2:35 AM 69.8 °F - 64.4 °F 83% 29.64 in 10.0 mi SSW 8.1 mph - N/A   Clear
2:55 AM 69.8 °F - 62.6 °F 78% 29.63 in 10.0 mi South 9.2 mph - N/A   Clear
3:15 AM 69.8 °F - 62.6 °F 78% 29.62 in 10.0 mi South 10.4 mph - N/A   Mostly Cloudy
3:35 AM 69.8 °F - 64.4 °F 83% 29.62 in 10.0 mi South 9.2 mph 21.9 mph N/A   Mostly Cloudy
3:55 AM 69.8 °F - 64.4 °F 83% 29.61 in 10.0 mi South 8.1 mph - N/A   Overcast
4:15 AM 69.8 °F - 64.4 °F 83% 29.61 in 10.0 mi SSW 11.5 mph - N/A   Overcast
4:35 AM 69.8 °F - 64.4 °F 83% 29.61 in 10.0 mi South 9.2 mph - N/A   Mostly Cloudy
4:55 AM 69.8 °F - 64.4 °F 83% 29.60 in 10.0 mi South 9.2 mph - N/A   Mostly Cloudy
5:15 AM 69.8 °F - 64.4 °F 83% 29.60 in 10.0 mi South 11.5 mph - N/A   Mostly Cloudy
5:35 AM 69.8 °F - 64.4 °F 83% 29.59 in 10.0 mi South 12.7 mph - N/A   Mostly Cloudy
5:55 AM 69.8 °F - 64.4 °F 83% 29.59 in 10.0 mi South 9.2 mph - N/A   Mostly Cloudy
6:15 AM 69.8 °F - 64.4 °F 83% 29.60 in 10.0 mi SSW 9.2 mph - N/A   Mostly Cloudy
6:35 AM 69.8 °F - 64.4 °F 83% 29.60 in 10.0 mi South 10.4 mph 20.7 mph N/A   Mostly Cloudy
6:55 AM 69.8 °F - 64.4 °F 83% 29.59 in 10.0 mi South 11.5 mph - N/A   Overcast
7:15 AM 71.6 °F - 64.4 °F 78% 29.59 in 10.0 mi SSW 16.1 mph - N/A   Overcast
7:35 AM 71.6 °F - 64.4 °F 78% 29.59 in 10.0 mi South 12.7 mph - N/A   Overcast
7:55 AM 71.6 °F - 64.4 °F 78% 29.59 in 10.0 mi South 12.7 mph - N/A   Overcast
8:15 AM 73.4 °F - 64.4 °F 73% 29.58 in 10.0 mi SSW 12.7 mph - N/A   Overcast
8:35 AM 73.4 °F - 64.4 °F 73% 29.57 in 10.0 mi South 15.0 mph - N/A   Overcast
8:55 AM 75.2 °F - 64.4 °F 69% 29.56 in 10.0 mi South 15.0 mph 31.1 mph N/A   Mostly Cloudy
9:15 AM 75.2 °F - 64.4 °F 69% 29.56 in 10.0 mi South 17.3 mph 25.3 mph N/A   Mostly Cloudy
9:35 AM 75.2 °F - 64.4 °F 69% 29.55 in 9.0 mi South 17.3 mph 31.1 mph N/A   Mostly Cloudy
9:55 AM 75.2 °F - 64.4 °F 69% 29.56 in 10.0 mi SSW 15.0 mph 27.6 mph N/A   Mostly Cloudy
10:15 AM 77.0 °F - 64.4 °F 65% 29.56 in 10.0 mi SSW 12.7 mph 27.6 mph N/A   Mostly Cloudy
10:35 AM 77.0 °F - 64.4 °F 65% 29.56 in 10.0 mi SSW 16.1 mph - N/A   Mostly Cloudy
10:55 AM 78.8 °F - 64.4 °F 61% 29.56 in 10.0 mi SSW 15.0 mph 28.8 mph N/A   Mostly Cloudy
11:15 AM 78.8 °F - 64.4 °F 61% 29.55 in 10.0 mi SSW 19.6 mph 33.4 mph N/A   Mostly Cloudy
11:35 AM 80.6 °F - 62.6 °F 54% 29.54 in 10.0 mi SSW 24.2 mph 33.4 mph N/A   Mostly Cloudy
11:55 AM 80.6 °F - 62.6 °F 54% 29.54 in 10.0 mi SSW 19.6 mph 29.9 mph N/A   Mostly Cloudy
12:15 PM 80.6 °F - 62.6 °F 54% 29.54 in 10.0 mi SSW 13.8 mph 32.2 mph N/A   Mostly Cloudy
12:35 PM 82.4 °F - 62.6 °F 51% 29.53 in 10.0 mi SSW 18.4 mph 35.7 mph N/A   Mostly Cloudy
12:55 PM 80.6 °F - 60.8 °F 51% 29.53 in 10.0 mi SW 23.0 mph 29.9 mph N/A   Mostly Cloudy
1:15 PM 80.6 °F - 60.8 °F 51% 29.53 in 10.0 mi SW 21.9 mph 29.9 mph N/A   Mostly Cloudy
1:35 PM 80.6 °F - 59.0 °F 48% 29.53 in 10.0 mi SW 24.2 mph - N/A   Mostly Cloudy
1:55 PM 82.4 °F - 57.2 °F 42% 29.53 in 10.0 mi SW 20.7 mph - N/A   Mostly Cloudy
2:15 PM 82.4 °F - 55.4 °F 39% 29.53 in 10.0 mi WSW 26.5 mph 40.3 mph N/A   Mostly Cloudy
2:35 PM 82.4 °F - 53.6 °F 37% 29.53 in 10.0 mi WSW 25.3 mph - N/A   Mostly Cloudy
2:55 PM 80.6 °F - 51.8 °F 37% 29.53 in 10.0 mi WSW 27.6 mph - N/A   Mostly Cloudy
3:15 PM 82.4 °F - 48.2 °F 30% 29.55 in 10.0 mi West 21.9 mph - N/A   Mostly Cloudy
3:55 PM 80.6 °F - 37.4 °F 21% 29.56 in 10.0 mi West 20.7 mph - N/A   Scattered Clouds
4:15 PM 78.8 °F - 33.8 °F 20% 29.56 in 10.0 mi West 23.0 mph - N/A   Scattered Clouds
4:35 PM 78.8 °F - 30.2 °F 17% 29.57 in 10.0 mi West 21.9 mph - N/A   Scattered Clouds
4:55 PM 75.2 °F - 42.8 °F 31% 29.59 in 10.0 mi NW 19.6 mph - N/A   Scattered Clouds
5:15 PM 71.6 °F - 42.8 °F 35% 29.62 in 10.0 mi NW 16.1 mph - N/A   Scattered Clouds
5:35 PM 69.8 °F - 42.8 °F 38% 29.64 in 10.0 mi WNW 18.4 mph 29.9 mph N/A   Scattered Clouds
5:55 PM 66.2 °F - 41.0 °F 40% 29.67 in 10.0 mi NW 15.0 mph - N/A   Scattered Clouds
6:15 PM 64.4 °F - 39.2 °F 40% 29.68 in 10.0 mi NW 17.3 mph - N/A   Scattered Clouds
6:35 PM 64.4 °F - 39.2 °F 40% 29.71 in 10.0 mi NW 13.8 mph - N/A   Scattered Clouds
6:55 PM 62.6 °F - 39.2 °F 42% 29.73 in 10.0 mi NW 17.3 mph - N/A   Scattered Clouds
7:15 PM 57.2 °F - 41.0 °F 55% 29.76 in 10.0 mi NNW 17.3 mph - N/A   Scattered Clouds
7:35 PM 55.4 °F - 37.4 °F 51% 29.77 in 10.0 mi NNW 16.1 mph 28.8 mph N/A   Scattered Clouds
7:55 PM 53.6 °F - 37.4 °F 54% 29.79 in 10.0 mi NNW 16.1 mph - N/A   Scattered Clouds
8:15 PM 53.6 °F - 37.4 °F 54% 29.81 in 10.0 mi North 15.0 mph - N/A   Scattered Clouds
8:35 PM 51.8 °F - 35.6 °F 54% 29.84 in 10.0 mi North 17.3 mph - N/A   Scattered Clouds
8:55 PM 48.2 °F - 33.8 °F 58% 29.86 in 10.0 mi North 17.3 mph - N/A   Scattered Clouds
9:15 PM 48.2 °F - 33.8 °F 58% 29.86 in 10.0 mi North 11.5 mph - N/A   Scattered Clouds
9:35 PM 46.4 °F 40.1 °F 33.8 °F 62% 29.87 in 10.0 mi North 15.0 mph - N/A   Scattered Clouds
9:55 PM 46.4 °F 39.0 °F 30.2 °F 53% 29.87 in 10.0 mi North 19.6 mph - N/A   Scattered Clouds
10:15 PM 44.6 °F 37.8 °F 33.8 °F 66% 29.88 in 10.0 mi NNW 15.0 mph - N/A   Partly Cloudy
10:35 PM 44.6 °F 39.2 °F 33.8 °F 66% 29.90 in 10.0 mi North 10.4 mph - N/A   Partly Cloudy
10:55 PM 44.6 °F 37.4 °F 32.0 °F 61% 29.90 in 10.0 mi North 16.1 mph - N/A   Clear
11:15 PM 44.6 °F 40.2 °F 32.0 °F 61% 29.91 in 10.0 mi North 8.1 mph - N/A   Clear
11:35 PM 42.8 °F 37.5 °F 32.0 °F 66% 29.92 in 10.0 mi North 9.2 mph - N/A   Clear
11:55 PM 42.8 °F 37.0 °F 32.0 °F 66% 29.93 in 10.0 mi North 10.4 mph - N/A   Clear